SCP
0 0 0 0 0 0 0 0 0 0 0 0 0 0 0 0 0 0 0 0 0 0 0 0 0 0 0 0 0 0 0 0 0 0 0 0 0 0 0 0 0 0 0
0 0 0 0 0 0 0 0 0 0 0 0 0 0 0 0 0 0 0 0 0 0 0 0 0 0 0 0 0 0 0 0 0 0 0 0 0 0 0 0 0 0 0
0 0 0 0 0 0 0 0 0 0 0 0 0 0 0 0 0 0 0 0 0 0 0 0 0 0 0 0 0 0 0 0 0 0 0 0 0 0 0 0 0 0 0
0 0 0 0 0 0 0 0 0 0 0 0 0 0 0 0 0 0 0 0 0 0 0 0 0 0 0 0 0 0 0 0 0 0 0 0 0 0 0 0 0 0 0
0 0 0 0 0 0 0 0 0 0 0 0 0 0 0 0 0 0 0 0 0 0 0 0 0 0 0 0 0 0 0 0 0 0 0 0 0 0 0 0 0 0 0
0 0 0 0 0 0 0 0 0 0 0 0 0 0 0 0 0 0 0 0 0 0 0 0 0 0 0 0 0 0 0 0 0 0 0 0 0 0 0 0 0 0 0
0 0 0 0 0 0 0 0 0 0 0 0 0 0 0 0 0 0 0 0 0 0 0 0 0 0 0 0 0 0 0 0 0 0 0 0 0 0 0 0 0 0 0
0 0 0 0 0 0 0 0 0 0 0 0 0 0 0 0 0 0 0 0 0 0 0 0 0 0 0 0 0 0 0 0 0 0 0 0 0 0 0 0 0 0 0
0 0 0 0 0 0 0 0 0 0 0 0 0 0 0 0 0 0 0 0 0 0 0 0 0 0 0 0 0 0 0 0 0 0 0 0 0 0 0 0 0 0 0
0 0 0 0 0 0 0 0 0 0 0 0 0 0 0 0 0 0 0 0 0 0 0 0 0 0 0 0 0 0 0 0 0 0 0 0 0 0 0 0 0 0 0
0 0 0 0 0 0 0 0 0 0 0 0 0 0 0 0 0 0 0 0 0 0 0 0 0 0 0 0 0 0 0 0 0 0 0 0 0 0 0 0 0 0 0
0 0 0 0 0 0 0 0 0 0 0 0 0 0 0 0 0 0 0 0 0 0 0 0 0 0 0 0 0 0 0 0 0 0 0 0 0 0 0 0 0 0 0
0 0 0 0 0 0 0 0 0 0 0 0 0 0 0 0 0 0 0 0 0 0 0 0 0 0 0 0 0 0 0 0 0 0 0 0 0 0 0 0 0 0 0
0 0 0 0 0 0 0 0 0 0 0 0 0 0 0 0 0 0 0 0 0 0 0 0 0 0 0 0 0 0 0 0 0 0 0 0 0 0 0 0 0 0 0
0 0 0 0 0 0 0 0 0 0 0 0 0 0 0 0 0 0 0 0 0 0 0 0 0 0 0 0 0 0 0 0 0 0 0 0 0 0 0 0 0 0 0
0 0 0 0 0 0 0 0 0 0 0 0 0 0 0 0 0 0 0 0 0 0 0 0 0 0 0 0 0 0 0 0 0 0 0 0 0 0 0 0 0 0 0
0 0 0 0 0 0 0 0 0 0 0 0 0 0 0 0 0 0 0 0 0 0 0 0 0 0 0 0 0 0 0 0 0 0 0 0 0 0 0 0 0 0 0
0 0 0 0 0 0 0 0 0 0 0 0 0 0 0 0 0 0 0 0 0 0 0 0 0 0 0 0 0 0 0 0 0 0 0 0 0 0 0 0 0 0 0
0 0 0 0 0 0 0 0 0 0 0 0 0 0 0 0 0 0 0 0 0 0 0 0 0 0 0 0 0 0 0 0 0 0 0 0 0 0 0 0 0 0 0
0 0 0 0 0 0 0 0 0 0 0 0 0 0 0 0 0 0 0 0 0 0 0 0 0 0 0 0 0 0 0 0 0 0 0 0 0 0 0 0 0 0 0
0 0 0 0 0 0 0 0 0 0 0 0 0 0 0 0 0 0 0 0 0 0 0 0 0 0 0 0 0 0 0 0 0 0 0 0 0 0 0 0 0 0 0
0 0 0 0 0 0 0 0 0 0 0 0 0 0 0 0 0 0 0 0 0 0 0 0 0 0 0 0 0 0 0 0 0 0 0 0 0 0 0 0 0 0 0
0 0 0 0 0 0 0 0 0 0 0 0 0 0 0 0 0 0 0 0 0 0 0 0 0 0 0 0 0 0 0 0 0 0 0 0 0 0 0 0 0 0 0
0 0 0 0 0 0 0 0 0 0 0 0 0 0 0 0 0 0 0 0 0 0 0 0 0 0 0 0 0 0 0 0 0 0 0 0 0 0 0 0 0 0 0
0 0 0 0 0 0 0 0 0 0 0 0 0 0 0 0 0 0 0 0 0 0 0 0 0 0 0 0 0 0 0 0 0 0 0 0 0 0 0 0 0 0 0
0 0 0 0 0 0 0 0 0 0 0 0 0 0 0 0 0 0 0 0 0 0 0 0 0 0 0 0 0 0 0 0 0 0 0 0 0 0 0 0 0 0 0
Wind_Speed
9 7 5 5 4 5 6 6 7 7 7 7 7 7 6 6 6 6 8 8 8 8 7 6 6 6 5 6 6 5 6 5 5 5 6 7 7 5 6 9 10 9 9
9 7 6 6 7 7 7 8 8 9 9 7 6 7 7 6 5 5 7 8 8 8 7 7 5 5 5 6 6 5 4 5 6 5 5 5 6 4 10 9 6 8 8
12 9 8 8 8 8 8 9 10 11 10 10 8 7 6 5 5 5 5 7 8 7 7 7 5 5 5 4 5 5 6 5 5 4 3 4 5 9 5 6 9 7 7
12 10 9 8 8 7 7 8 9 9 8 8 7 7 6 6 5 4 4 6 7 7 6 6 6 5 4 5 5 5 4 5 5 5 3 4 7 6 7 5 5 9 10
13 11 10 9 8 7 7 8 9 9 9 9 9 8 7 5 4 4 5 5 5 6 6 6 5 5 4 5 5 5 5 3 4 4 5 6 5 6 9 12 7 6 6
13 12 10 9 8 7 7 8 9 9 9 9 9 8 8 7 7 6 5 4 4 4 6 5 5 5 4 4 4 4 5 4 5 4 4 5 5 6 8 13 14 10 6
13 12 10 9 8 8 7 8 9 9 9 9 9 8 8 8 7 5 5 4 4 3 5 5 4 4 4 5 4 4 5 6 6 5 5 5 5 6 8 11 14 15 9
12 11 10 9 9 8 8 8 9 9 8 8 8 8 7 5 4 6 5 4 3 3 4 5 5 5 5 6 5 4 5 6 6 8 7 6 6 6 7 8 12 16 14
13 12 11 10 9 8 8 9 9 9 8 8 8 7 7 6 6 6 5 3 3 3 4 5 5 5 5 5 6 4 6 6 6 7 8 7 6 6 6 6 6 11 19
13 12 11 10 8 8 9 9 9 8 8 7 6 6 6 6 5 5 5 4 4 4 4 5 5 6 6 6 6 6 6 7 7 6 8 8 7 6 6 6 6 6 12
14 12 11 10 9 9 8 9 8 8 8 7 7 7 6 5 5 5 4 4 4 4 4 5 5 6 6 6 6 7 8 8 8 9 10 11 10 8 6 6 6 6 7
12 12 11 11 10 9 8 8 8 8 7 7 7 6 5 5 4 4 3 3 4 4 4 5 5 6 7 6 7 8 9 8 9 11 12 12 11 11 9 7 7 7 8
13 11 11 10 10 9 9 8 8 8 7 7 7 6 5 5 4 4 3 4 4 4 5 5 6 6 7 7 7 8 6 8 10 11 13 13 13 13 9 8 8 8 11
13 12 11 10 9 9 9 9 8 8 7 7 6 6 4 4 3 3 3 4 4 5 5 5 6 7 7 8 8 6 7 8 9 11 13 14 13 13 11 11 9 10 12
13 13 12 10 9 9 9 9 8 7 7 7 6 5 3 2 2 3 4 4 5 6 6 6 6 7 7 8 10 8 9 8 10 11 13 14 19 23 19 16 12 13 12
12 12 12 11 10 10 10 10 8 7 7 7 6 4 2 2 2 3 4 5 5 6 6 6 7 7 9 18 22 17 8 8 10 14 13 14 15 19 26 28 28 25 19
12 12 11 10 10 10 10 9 8 7 7 6 5 3 2 1 2 4 5 5 5 5 6 7 7 7 10 21 22 22 13 8 9 12 13 14 15 21 14 21 26 22 27
11 10 10 10 10 10 10 10 8 7 6 5 4 3 1 2 3 4 5 5 5 6 6 7 7 8 12 21 22 23 11 8 9 10 12 14 14 16 21 18 17 16 16
11 10 11 12 11 11 10 10 8 7 6 5 3 2 1 2 4 5 5 5 5 6 6 7 8 9 10 18 22 22 8 7 9 11 13 16 16 24 31 22 20 19 15
12 12 13 13 12 10 10 9 7 6 5 4 2 0 1 3 4 5 5 5 5 7 7 8 8 8 8 17 22 23 7 9 10 10 12 19 23 29 32 22 18 18 15
13 13 13 11 10 9 9 8 7 6 5 4 1 1 2 3 4 4 5 6 6 7 7 8 7 7 10 16 21 23 11 10 12 13 12 12 27 32 33 28 14 20 23
12 12 12 10 8 8 8 8 7 6 4 2 1 2 3 3 4 5 5 6 6 7 7 7 7 5 8 14 18 24 22 22 15 14 12 15 30 33 31 22 23 30 25
10 10 11 10 7 6 7 8 6 5 3 1 1 2 3 4 4 5 5 5 5 5 6 6 7 6 5 9 21 23 25 27 17 13 24 29 31 27 17 21 28 23 13
10 10 10 9 7 6 6 7 6 4 2 0 2 3 4 4 5 4 4 5 5 5 6 7 8 8 7 6 7 9 12 17 15 13 18 24 23 20 20 19 15 11 12
7 8 8 8 7 6 6 6 5 3 1 1 2 3 4 4 5 5 5 6 5 7 10 7 7 8 9 12 24 19 14 14 15 18 10 9 10 11 12 12 11 11 12
7 7 7 8 7 7 6 5 4 3 1 1 3 3 3 4 4 5 6 10 12 18 20 19 18 13 17 25 26 27 28 29 27 18 11 11 12 13 13 14 14 13 13
Wind_Direction
113 118 132 127 97 75 81 96 104 101 97 98 97 92 85 76 66 61 59 55 50 46 42 31 31 20 19 23 11 4 349 342 338 330 319 296 301 318 357 344 331 324 331
121 124 123 106 95 84 79 81 85 87 87 90 91 95 95 88 81 67 58 58 52 44 45 34 28 19 19 20 7 8 354 340 344 337 328 326 317 353 343 304 309 323 319
135 133 108 89 81 76 78 86 86 89 93 96 99 102 97 93 84 77 68 60 56 45 40 37 28 19 24 16 2 13 1 337 332 351 342 332 311 316 277 334 315 308 327
132 127 115 102 91 84 82 89 95 99 103 107 107 106 102 99 98 101 96 84 69 53 34 34 28 22 25 18 359 5 346 345 333 333 338 305 300 305 304 301 306 317 309
129 124 118 112 100 90 84 82 82 80 80 80 84 92 94 97 88 79 73 81 75 61 33 27 22 24 22 6 353 353 345 340 331 323 313 306 299 291 302 301 296 291 292
125 118 113 108 102 93 87 85 84 80 77 78 78 84 87 81 74 66 58 58 65 55 32 21 16 19 9 349 341 348 334 317 306 300 296 295 297 304 300 300 303 299 292
131 130 129 126 121 113 108 103 99 92 84 81 77 75 77 77 71 66 58 52 46 39 21 15 3 360 350 340 343 336 317 305 301 294 288 288 290 292 293 296 301 300 298
139 140 138 132 129 128 122 112 105 99 92 88 85 79 76 75 70 63 61 56 49 35 16 6 354 349 344 339 335 321 311 308 304 306 302 296 290 288 288 293 303 304 303
146 145 138 135 135 133 123 116 110 105 100 95 91 84 79 77 72 67 58 49 35 22 13 358 348 338 334 331 329 317 309 307 302 298 295 291 286 283 283 287 293 300 304
150 146 141 138 138 129 123 119 114 109 101 93 92 91 79 75 74 68 54 35 24 16 359 349 338 329 327 327 324 314 306 306 304 301 298 296 294 290 286 283 282 283 292
153 147 143 139 131 126 125 120 115 112 109 104 93 85 75 67 69 67 49 25 12 1 349 338 329 323 321 323 319 314 309 308 310 311 308 303 301 297 292 289 286 281 286
148 144 140 135 134 136 132 126 122 114 109 105 99 95 84 68 62 58 38 17 1 344 333 328 323 320 320 317 313 310 310 315 320 314 308 305 306 301 297 292 290 292 292
146 143 141 142 146 144 137 130 122 119 113 107 105 97 82 66 51 38 17 359 341 326 322 322 316 312 309 307 304 300 313 323 313 308 307 306 303 299 296 294 294 293 295
151 150 148 150 149 144 136 128 123 118 111 102 96 89 80 69 41 17 354 336 325 317 311 307 303 300 300 300 296 309 317 305 303 304 303 301 298 297 298 298 289 293 296
159 155 154 152 146 140 133 126 122 117 114 108 102 96 78 62 28 358 334 320 312 308 299 299 298 297 301 303 314 315 310 308 306 303 299 298 302 305 305 305 305 303 300
160 154 152 149 146 140 132 125 120 118 115 113 110 106 78 44 2 324 309 302 298 295 299 300 298 302 311 316 315 315 309 303 305 304 303 302 302 304 310 310 307 306 306
154 153 151 145 139 133 128 124 121 116 111 111 111 105 67 1 323 309 305 300 299 302 305 302 304 304 306 313 314 316 314 302 299 300 305 308 308 311 303 301 305 307 305
145 142 136 129 124 119 116 114 115 115 117 120 120 114 66 325 315 309 306 306 306 306 303 303 302 300 302 313 316 316 313 294 293 298 302 303 305 305 306 305 308 304 301
126 123 120 118 114 115 116 116 116 121 124 121 113 99 13 315 309 306 305 306 307 304 299 297 297 295 300 313 315 316 304 299 299 301 305 306 304 305 311 313 309 306 303
107 111 112 112 113 116 120 123 128 131 126 118 110 73 308 303 300 301 305 303 303 297 298 298 296 297 300 312 319 322 310 309 309 306 304 307 310 310 314 313 311 311 309
107 110 112 113 118 122 124 125 126 122 117 115 128 287 300 301 298 299 296 297 297 298 299 299 301 303 310 321 326 324 323 317 316 314 312 309 312 314 316 318 316 311 317
111 112 113 113 114 119 121 121 119 117 120 137 216 283 299 302 304 299 296 298 300 300 301 305 308 307 316 324 322 323 325 324 318 313 310 310 314 318 322 324 318 321 325
114 115 118 116 112 113 120 122 121 123 130 152 287 306 310 302 299 299 300 301 298 298 304 309 311 312 311 315 319 319 320 321 319 310 311 315 319 324 325 320 322 325 320
120 124 124 123 119 109 102 114 121 124 125 41 328 317 309 304 304 299 294 294 298 301 302 304 306 305 302 299 300 305 314 320 318 310 311 319 321 322 321 321 320 317 314
124 128 131 131 132 127 117 118 123 118 86 3 329 314 308 308 305 298 292 299 284 297 309 301 299 306 309 311 320 325 323 321 317 322 320 319 321 321 319 318 318 318 319
127 127 127 128 131 132 131 128 121 108 73 344 322 317 317 312 306 304 305 307 310 316 318 318 316 314 315 320 325 327 326 326 328 332 325 322 321 320 321 321 320 320 320